Weather History for Ogden Hill AFB, UT

Change the Weather History Date:

Tuesday, March 19, 2013

  Actual Average Record
Temperature  
Mean Temperature 34 °F -  
Max Temperature 52 °F 52 °F 71 °F (2004)
Min Temperature 17 °F 34 °F 17 °F (2013)
Degree Days  
Heating Degree Days 31    
Moisture  
Dew Point 4 °F    
Average Humidity 25    
Maximum Humidity 73    
Minimum Humidity 9    
Precipitation  
Precipitation 0.00 in - - ()
Sea Level Pressure  
Sea Level Pressure 30.16 in    
Wind  
Wind Speed 5 mph (East)    
Max Wind Speed 16 mph    
Max Gust Speed -    
Visibility 10 miles    
Events      
Averages and records for this station are not official NWS values.
T = Trace of Precipitation, MM = Missing Value Source: NWS Daily Summary

Daily Weather History Graph

Daily Weather History Graph

Search for Another Location

Airport:

Trip Planner

Search our weather history database for the weather conditions in past years. The results will help you decide how hot, cold, wet, or windy it might be!

Date:

Astronomy

Mar. 19, 2013 Rise Set
Actual Time 7:32 AM MDT 7:39 PM MDT
Civil Twilight 7:04 AM MDT 8:06 PM MDT
Nautical Twilight 6:32 AM MDT 8:38 PM MDT
Astronomical Twilight 6:00 AM MDT 9:11 PM MDT
Moon 12:22 PM MDT (3/19) 2:31 AM MDT (3/19)
Length of Visible Light 13h 01m
Length of Day
12h 06m
Waxing Crescent, 50% of the Moon is Illuminated
Mar 19
Waxing Crescent
Mar 27
Full
Apr 2
Last Quarter
Apr 10
New
Apr 18
First Quarter

Hourly Weather History & Observations

Time (MDT) Temp. Windchill Dew Point Humidity Pressure Visibility Wind Dir Wind Speed Gust Speed Precip Events Conditions
12:58 AM 39.7 °F - 13.3 °F 34% 30.09 in 10.0 mi NNE 2.3 mph - N/A   Clear
1:58 AM 37.6 °F 35.1 °F 11.1 °F 34% 30.11 in 10.0 mi NNE 3.5 mph - N/A   Clear
2:58 AM 38.5 °F - 6.4 °F 26% 30.09 in 10.0 mi NNW 2.3 mph - N/A   Clear
3:58 AM 34.0 °F 29.8 °F 9.7 °F 36% 30.11 in 10.0 mi ESE 4.6 mph - N/A   Clear
4:58 AM 34.2 °F 27.5 °F 7.7 °F 33% 30.12 in 10.0 mi ESE 8.1 mph - N/A   Clear
5:58 AM 34.5 °F 28.6 °F 5.9 °F 30% 30.12 in 10.0 mi ESE 6.9 mph - N/A   Clear
6:58 AM 31.6 °F 23.7 °F 8.2 °F 38% 30.14 in 10.0 mi ESE 9.2 mph - N/A   Clear
6:59 AM 17.6 °F 10.7 °F 10.4 °F 73% 30.24 in 10.0 mi East 4.6 mph - N/A   Clear
7:58 AM 31.6 °F 22.6 °F 8.8 °F 38% 30.17 in 10.0 mi ESE 11.5 mph - N/A   Clear
8:58 AM 34.0 °F 25.5 °F 9.5 °F 36% 30.19 in 10.0 mi ESE 11.5 mph - N/A   Clear
9:58 AM 38.5 °F 32.1 °F 9.7 °F 31% 30.21 in 10.0 mi East 9.2 mph - N/A   Clear
10:58 AM 42.1 °F - 5.9 °F 22% 30.21 in 10.0 mi Variable 2.3 mph - N/A   Clear
11:58 AM 44.8 °F 43.3 °F -0.8 °F 15% 30.22 in 10.0 mi SE 3.5 mph - N/A   Clear
12:58 PM 46.9 °F - -7.6 °F 10% 30.21 in 10.0 mi Variable 2.3 mph - N/A   Clear
1:58 PM 50.0 °F - -0.4 °F 13% 30.19 in 10.0 mi Variable 2.3 mph - N/A   Clear
2:58 PM 50.4 °F - -0.0 °F 13% 30.18 in 10.0 mi West 5.8 mph - N/A   Partly Cloudy
3:58 PM 50.9 °F - -0.0 °F 12% 30.17 in 10.0 mi North 4.6 mph - N/A   Clear
4:58 PM 51.6 °F - -1.1 °F 11% 30.17 in 10.0 mi Variable 3.5 mph - N/A   Clear
5:58 PM 51.4 °F - -5.8 °F 9% 30.16 in 10.0 mi West 6.9 mph - N/A   Clear
6:58 PM 49.8 °F - -5.6 °F 10% 30.14 in 10.0 mi North 3.5 mph - N/A   Clear
7:58 PM 47.1 °F - 3.4 °F 17% 30.16 in 10.0 mi NNW 5.8 mph - N/A   Clear
8:58 PM 45.7 °F 43.4 °F 3.2 °F 17% 30.15 in 10.0 mi East 4.6 mph - N/A   Clear
9:58 PM 42.8 °F 36.6 °F 5.0 °F 21% 30.15 in 10.0 mi ESE 11.5 mph - N/A   Clear
10:58 PM 41.7 °F 33.7 °F 4.5 °F 21% 30.12 in 10.0 mi ESE 16.1 mph - N/A   Clear
11:58 PM 42.1 °F 34.5 °F 2.8 °F 20% 30.09 in 10.0 mi ESE 15.0 mph - N/A   Clear